Regional Weather Roundup
Issued by NWS

Home | Current Version | Previous Version | Graphics & Text | Print | Product List | Glossary On
Versions: 1 2 3 4 5 6 7 8 9 10 11 12 13 14 15 16 17 18 19 20 21 22 23 24 25 26 27 28 29 30 31 32 33 34 35 36 37 38 39 40 41 42 43 44 45 46 47 48 49 50
000
ASUS43 KDTX 271201
RWRMI
MICHIGAN HOURLY REGIONAL WEATHER ROUNDUP
NATIONAL WEATHER SERVICE DETROIT/PONTIAC MI
800 AM EDT FRI MAY 27 2016

NOTE: "FAIR" INDICATES FEW OR NO CLOUDS BELOW 12,000 FEET WITH NO
SIGNIFICANT WEATHER AND/OR OBSTRUCTION TO VISIBILITY.

MIZ047>049-052>055-059>063-066>070-074>076-081>083-271300-
SOUTHEAST LOWER MICHIGAN

CITY           SKY/WX    TMP DP  RH WIND       PRES   REMARKS
ADRIAN         CLOUDY    66  62  87 SW5       29.99S
6HR MIN TEMP:  62; 6HR MAX TEMP:  70;

ALMA           MOSUNNY   65  65 100 CALM      29.96S FOG
ANN ARBOR      CLOUDY    67  64  90 S5        29.98S
BAD AXE        SUNNY     67  67 100 CALM      29.96S
CARO           SUNNY     66  64  94 CALM      29.96R
DETROIT CITY   SUNNY     71  62  73 W7        29.97R
6HR MIN TEMP:  68; 6HR MAX TEMP:  74;

DETROIT        CLOUDY    70  63  78 SW7       29.99S
6HR MIN TEMP:  66; 6HR MAX TEMP:  71;

FLINT          SUNNY     71  62  73 SW3       29.97R
6HR MIN TEMP:  62; 6HR MAX TEMP:  72;

GROSSE ILE     MOSUNNY   70  64  83 SW5       29.98R
HILLSDALE      CLOUDY    66  62  88 CALM      29.98F
6HR MIN TEMP:  63; 6HR MAX TEMP:  66;

HOWELL         MOSUNNY   68  64  86 SW5       29.98S

CITY           SKY/WX    TMP DP  RH WIND       PRES   REMARKS
JACKSON        MOSUNNY   67  64  90 SW3       29.97S
6HR MIN TEMP:  61; 6HR MAX TEMP:  67;

LAMBERTVILLE   MOSUNNY   70  64  80 SW5       29.99S
6HR MIN TEMP:  65; 6HR MAX TEMP:  72;

LANSING        MOSUNNY   68  63  84 SW7       29.97R
6HR MIN TEMP:  63; 6HR MAX TEMP:  68;

LAPEER         FAIR      67  63  85 CALM      29.98R
6HR MIN TEMP:  59; 6HR MAX TEMP:  68;

MASON          PTSUNNY   66  62  88 CALM      29.97S
MONROE         CLOUDY    69  64  84 SW5       29.99R
PONTIAC        MOSUNNY   69  63  81 VRB5      29.98R
6HR MIN TEMP:  65; 6HR MAX TEMP:  72;

PORT HOPE        N/A     67  64  90 VRB3      29.94S
6HR MIN TEMP:  64; 6HR MAX TEMP:  70;

PORT HURON     SUNNY     70  66  88 CALM      29.97S
TRI CITIES     SUNNY     70  64  81 SW5       29.96R HAZE
6HR MIN TEMP:  63; 6HR MAX TEMP:  71;

MIDLAND        FAIR      65  65 100 CALM      29.95S
6HR MIN TEMP:  56; 6HR MAX TEMP:  65;

TROY           SUNNY     70  64  80 W5        30.00R
SAGINAW HB     SUNNY     68  63  83 SW6       29.96R
$$
MIZ043>046-050>051-056>058-064>065-071>073-077>080-271300-
SOUTHWEST LOWER MICHIGAN

CITY           SKY/WX    TMP DP  RH WIND       PRES   REMARKS
BATTLE CREEK   PTSUNNY   66  63  90 S5        29.96F
6HR MIN TEMP:  62; 6HR MAX TEMP:  67;

BENTON HARBOR  MOSUNNY   68  63  84 S5        29.92S
6HR MIN TEMP:  66; 6HR MAX TEMP:  71;

BIG RAPIDS     CLOUDY    60  60  98 CALM      29.94S FOG
6HR MIN TEMP:  56; 6HR MAX TEMP:  60;

COLDWATER      CLOUDY    67  64  91 S3        29.97S
6HR MIN TEMP:  62; 6HR MAX TEMP:  68;

FREMONT        FAIR      64  64 100 CALM      29.92S FOG
HOLLAND        CLOUDY    67  64  90 S8        29.92F
6HR MIN TEMP:  63; 6HR MAX TEMP:  69;

GRAND RAPIDS   PTSUNNY   69  65  86 S7        29.93F
6HR MIN TEMP:  63; 6HR MAX TEMP:  69;

IONIA          FAIR      65  64  94 CALM      29.94S
6HR MIN TEMP:  61; 6HR MAX TEMP:  66;

KALAMAZOO      CLOUDY    68  63  84 SE3       29.94F
6HR MIN TEMP:  65; 6HR MAX TEMP:  68;

LUDINGTON      SUNNY     64  62  96 SE3       29.91S
6HR MIN TEMP:  54; 6HR MAX TEMP:  64;

MARSHALL       CLOUDY    66  64  90 CALM      29.96F
6HR MIN TEMP:  62; 6HR MAX TEMP:  67;

MOUNT PLEASANT SUNNY     64  64 100 S3        29.95R FOG
6HR MIN TEMP:  55; 6HR MAX TEMP:  64;

MUSKEGON       PTSUNNY   70  64  81 S8        29.91F
6HR MIN TEMP:  63; 6HR MAX TEMP:  70;

SOUTH HAVEN    MOSUNNY   67  65  91 S3        29.92S
$$
MIZ016>042-271300-
NORTHERN LOWER MICHIGAN

CITY           SKY/WX    TMP DP  RH WIND       PRES   REMARKS
ALPENA         FOG       60  59  96 S3        29.96S VSB<1/4
6HR MIN TEMP:  53; 6HR MAX TEMP:  62;

BEAVER ISLAND  SUNNY     59  59 100 SE3       29.93R
6HR MIN TEMP:  50; 6HR MAX TEMP:  59;

BELLAIRE       SUNNY     60  59  96 CALM      29.93S
6HR MIN TEMP:  53; 6HR MAX TEMP:  60;

CADILLAC       SUNNY     62  59  90 CALM      29.94S FOG
CHARLEVOIX     SUNNY     58  58 100 E3        29.96R
FRANKFORT      SUNNY     61  59  94 CALM      29.91R
GAYLORD        SUNNY     62  60  93 CALM      29.96S FOG
6HR MIN TEMP:  55; 6HR MAX TEMP:  62;

GRAYLING       MOSUNNY   58  57  97 CALM      29.96S FOG
6HR MIN TEMP:  51; 6HR MAX TEMP:  58;

HARBOR SPRINGS SUNNY     57  57 100 E5        29.94R
HOUGHTON LAKE  SUNNY     61  60  97 CALM      29.95F
6HR MIN TEMP:  53; 6HR MAX TEMP:  61;

MANISTEE       SUNNY     61  57  88 E6        29.92R
OSCODA         SUNNY     66  63  90 E5        29.96R
6HR MIN TEMP:  56; 6HR MAX TEMP:  66;

PELLSTON       SUNNY     57  55  93 SE5       29.94S
6HR MIN TEMP:  54; 6HR MAX TEMP:  58;

ROGERS CITY    FOG       57  56  96 CALM      29.97R VSB 1/2
TRAVERSE CITY  MOSUNNY   62  58  86 CALM      29.91S
6HR MIN TEMP:  55; 6HR MAX TEMP:  63;

$$
MIZ007>008-015-271300-
EASTERN UPPER MICHIGAN

CITY           SKY/WX    TMP DP  RH WIND       PRES   REMARKS
KINROSS          N/A     55  55 100 CALM      29.93F VSB<1/4
6HR MIN TEMP:  54; 6HR MAX TEMP:  57;

MACKINAC ISLAN MOSUNNY   56  56 100 SE3       29.93S
6HR MIN TEMP:  53; 6HR MAX TEMP:  56;

NEWBERRY       FOG       54  53  97 CALM      29.92F VSB 1/4
6HR MIN TEMP:  51; 6HR MAX TEMP:  54; 6HR PCP:  0.01;

S. S. MARIE    FOG       56  54  93 CALM      29.94S VSB 1/4
6HR MIN TEMP:  54; 6HR MAX TEMP:  58;

MUNISING         N/A     60  58  92 S8        29.89R
6HR MIN TEMP:  58; 6HR MAX TEMP:  60;

$$
MIZ004>006-011>014-085-271300-
CENTRAL UPPER MICHIGAN

CITY           SKY/WX    TMP DP  RH WIND       PRES   REMARKS
MANISTIQUE     FOG       53  52  97 SE3       29.92R VSB<1/4
6HR MIN TEMP:  50; 6HR MAX TEMP:  53;

ESCANABA       CLOUDY    54  54 100 CALM      29.91R VSB<1/4
6HR MIN TEMP:  48; 6HR MAX TEMP:  54;

MENOMINEE      SUNNY     59  58  96 CALM      29.90R
6HR MIN TEMP:  52; 6HR MAX TEMP:  59;

SAWYER-GWINN   FOG       54  54 100 SW6       29.91S VSB 1/4
$$
MIZ001>003-009>011-084-271300-
WESTERN UPPER MICHIGAN

CITY           SKY/WX    TMP DP  RH WIND       PRES   REMARKS
IRON MOUNTAIN  PTSUNNY   59  57  93 CALM      29.90R FOG
6HR MIN TEMP:  54; 6HR MAX TEMP:  62;

HOUGHTON       FOG       53  52  96 CALM      29.89R VSB<1/4
6HR MIN TEMP:  50; 6HR MAX TEMP:  54;

COPPER HARBOR    N/A     48  48 100 CALM      29.90R
6HR MIN TEMP:  44; 6HR MAX TEMP:  51;

IRONWOOD       CLOUDY    55  55 100 E3        29.86S
6HR MIN TEMP:  50; 6HR MAX TEMP:  57;

$$

ABBREVIATIONS USED IN REMARKS
   TC - TEMPERATURE IN CELSIUS
  WCI - WIND CHILL INDEX
   HX - HEAT INDEX
  VSB - VISIBILITY




USA.gov is the U.S. government's official web portal to all federal, state and local government web resources and services.